,,,PA_Meas_PMT16A,,PR_Meas_QMR101_102,,RH_Meas_QMH101,,SR_Meas_QMS101,,TA_Meas_QMH101,,GenWind,,GenWind,
date,time,status,PA,status,PR,status,RH,status,SR,status,TA,status,DirAvg,status,SpdAvg,
2008-08-23, 09:09:04,VALID,1006.49,VALID,0,VALID,96.2307,VALID,135.559,VALID,23.2966,INVALID,360,INVALID,0,
2008-08-23, 09:10:04,VALID,1006.47,VALID,0,VALID,96.246,VALID,130.732,VALID,23.2966,VALID,15,VALID,1.8918,
2008-08-23, 09:11:04,VALID,1006.49,VALID,0,VALID,96.2307,VALID,125,VALID,23.316,VALID,357,VALID,2.56797,
2008-08-23, 09:12:04,VALID,1006.49,VALID,0,VALID,96.2231,VALID,118.664,VALID,23.316,VALID,352,VALID,1.83164,
2008-08-23, 09:13:04,VALID,1006.48,VALID,0,VALID,96.2231,VALID,113.334,VALID,23.3355,VALID,348,VALID,1.8332,
2008-08-23, 09:14:04,VALID,1006.47,VALID,0,VALID,96.1773,VALID,109.312,VALID,23.316,VALID,350,VALID,2.03242,
2008-08-23, 09:15:04,VALID,1006.46,VALID,0,VALID,96.1544,VALID,105.591,VALID,23.2966,VALID,348,VALID,1.54961,
2008-08-23, 09:16:04,VALID,1006.46,VALID,0,VALID,96.0934,VALID,101.569,VALID,23.2771,VALID,356,VALID,2.39336,
2008-08-23, 09:17:04,VALID,1006.5,VALID,0,VALID,96.0934,VALID,96.9427,VALID,23.2966,VALID,353,VALID,1.26719,
2008-08-23, 09:18:04,VALID,1006.5,VALID,0,VALID,96.0857,VALID,91.814,VALID,23.2966,VALID,350,VALID,1.61406,
2008-08-23, 09:19:04,VALID,1006.53,VALID,0,VALID,96.0857,VALID,86.5847,VALID,23.316,VALID,12,VALID,0.818359,
2008-08-23, 09:20:04,VALID,1006.51,VALID,0,VALID,96.1086,VALID,82.0594,VALID,23.2948,VALID,360,VALID,1.04453,
2008-08-23, 09:21:04,VALID,1006.5,VALID,0,VALID,96.0476,VALID,80.6515,VALID,23.2771,VALID,353,VALID,1.62461,
2008-08-23, 09:22:04,VALID,1006.51,VALID,0,VALID,96.0323,VALID,81.7577,VALID,23.2983,VALID,358,VALID,1.34453,
2008-08-23, 09:23:04,VALID,1006.52,VALID,0,VALID,96.04,VALID,83.7689,VALID,23.2771,VALID,19,VALID,1.23711,
2008-08-23, 09:24:04,VALID,1006.53,VALID,0,VALID,96.0247,VALID,87.7915,VALID,23.2966,VALID,27,VALID,1.70547,
2008-08-23, 09:25:04,VALID,1006.53,VALID,0,VALID,96.04,VALID,92.1157,VALID,23.2966,VALID,356,VALID,0.946484,
2008-08-23, 09:26:04,VALID,1006.57,VALID,0,VALID,96.0323,VALID,96.0376,VALID,23.2966,VALID,24,VALID,1.39141,
2008-08-23, 09:27:04,VALID,1006.61,VALID,0,VALID,96.0552,VALID,98.9539,VALID,23.316,VALID,6,VALID,0.876172,
2008-08-23, 09:28:04,VALID,1006.57,VALID,0,VALID,96.04,VALID,101.971,VALID,23.3355,VALID,352,VALID,1.05938,
2008-08-23, 09:29:04,VALID,1006.54,VALID,0,VALID,96.04,VALID,104.284,VALID,23.3355,VALID,348,VALID,1.22656,
2008-08-23, 09:30:04,VALID,1006.51,VALID,0,VALID,96.0323,VALID,106.697,VALID,23.3355,VALID,23,VALID,0.712891,
2008-08-23, 09:31:04,VALID,1006.51,VALID,0,VALID,96.0781,VALID,109.01,VALID,23.3744,VALID,29,VALID,0.828516,
2008-08-23, 09:32:04,VALID,1006.54,VALID,0,VALID,96.0934,VALID,110.921,VALID,23.4134,VALID,121,VALID,1.02383,
2008-08-23, 09:33:04,VALID,1006.59,VALID,0,VALID,96.1086,VALID,112.731,VALID,23.4328,VALID,117,VALID,0.275,
2008-08-23, 09:34:04,VALID,1006.55,VALID,0,VALID,96.0705,VALID,114.24,VALID,23.4134,VALID,31,VALID,1.07695,
2008-08-23, 09:35:04,VALID,1006.55,VALID,0,VALID,96.1086,VALID,114.24,VALID,23.4718,VALID,27,VALID,0.246484,
2008-08-23, 09:36:04,VALID,1006.57,VALID,0,VALID,96.1163,VALID,112.631,VALID,23.4718,VALID,197,VALID,0.342969,
2008-08-23, 09:37:04,VALID,1006.56,VALID,0,VALID,96.0095,VALID,111.524,VALID,23.4328,VALID,307,VALID,0.575,
2008-08-23, 09:38:04,VALID,1006.54,VALID,0,VALID,95.9942,VALID,113.133,VALID,23.4328,VALID,270,VALID,1.11797,
2008-08-23, 09:39:04,VALID,1006.57,VALID,0,VALID,95.9866,VALID,115.748,VALID,23.4116,VALID,48,VALID,1.51953,
2008-08-23, 09:40:04,VALID,1006.58,VALID,0,VALID,95.9789,VALID,118.363,VALID,23.4523,VALID,341,VALID,0.729688,
2008-08-23, 09:41:04,VALID,1006.54,VALID,0,VALID,96.0018,VALID,118.564,VALID,23.47,VALID,335,VALID,0.395312,
2008-08-23, 09:42:04,VALID,1006.54,VALID,0,VALID,96.0781,VALID,118.061,VALID,23.4877,VALID,287,VALID,0.564062,
2008-08-23, 09:43:04,VALID,1006.48,VALID,0,VALID,96.0781,VALID,116.955,VALID,23.5478,VALID,328,VALID,0.589844,
2008-08-23, 09:44:04,VALID,1006.46,VALID,0,VALID,96.0629,VALID,113.737,VALID,23.5284,VALID,353,VALID,0.613281,
2008-08-23, 09:45:04,VALID,1006.45,VALID,0,VALID,96.04,VALID,109.513,VALID,23.5284,VALID,343,VALID,0.492969,
2008-08-23, 09:46:04,VALID,1006.46,VALID,0,VALID,96.0781,VALID,104.686,VALID,23.5478,VALID,346,VALID,0.5375,
2008-08-23, 09:47:04,VALID,1006.42,VALID,0,VALID,96.0781,VALID,98.8534,VALID,23.5868,VALID,359,VALID,0.676172,
2008-08-23, 09:48:04,VALID,1006.45,VALID,0,VALID,96.0323,VALID,91.4117,VALID,23.5673,VALID,354,VALID,0.800391,
2008-08-23, 09:49:04,VALID,1006.42,VALID,0,VALID,96.0018,VALID,83.7689,VALID,23.5691,VALID,352,VALID,1.31016,
2008-08-23, 09:50:04,VALID,1006.43,VALID,0,VALID,95.9561,VALID,74.0143,VALID,23.5089,VALID,298,VALID,0.772266,
2008-08-23, 09:51:04,VALID,1006.43,VALID,0,VALID,95.9713,VALID,64.2597,VALID,23.5089,VALID,4,VALID,0.518359,
2008-08-23, 09:52:04,VALID,1006.42,VALID,0,VALID,95.9637,VALID,55.913,VALID,23.4894,VALID,356,VALID,1.44023,
2008-08-23, 09:53:04,VALID,1006.42,VALID,0,VALID,95.9561,VALID,49.5775,VALID,23.5107,VALID,4,VALID,0.513672,
2008-08-23, 09:54:04,VALID,1006.41,VALID,0,VALID,95.9027,VALID,43.946,VALID,23.4894,VALID,348,VALID,0.986328,
2008-08-23, 09:55:04,VALID,1006.44,VALID,0,VALID,95.9408,VALID,39.9235,VALID,23.5107,VALID,356,VALID,0.944922,
2008-08-23, 09:56:04,VALID,1006.41,VALID,0,VALID,95.9408,VALID,36.9066,VALID,23.47,VALID,12,VALID,0.980078,
2008-08-23, 09:57:04,VALID,1006.38,VALID,0,VALID,95.9561,VALID,35.0965,VALID,23.4718,VALID,353,VALID,1.18281,
2008-08-23, 09:58:04,VALID,1006.36,VALID,0,VALID,95.8645,VALID,34.5937,VALID,23.4116,VALID,350,VALID,1.67461,
2008-08-23, 09:59:04,VALID,1006.36,VALID,0,VALID,95.8111,VALID,34.4931,VALID,23.3921,VALID,360,VALID,1.49414,
2008-08-23, 10:00:04,VALID,1006.37,VALID,0,VALID,95.8187,VALID,34.8953,VALID,23.3939,VALID,350,VALID,1.08008,
2008-08-23, 10:01:04,VALID,1006.39,VALID,0,VALID,95.9027,VALID,35.197,VALID,23.4134,VALID,1,VALID,1.20742,
2008-08-23, 10:02:04,VALID,1006.4,VALID,0,VALID,95.9103,VALID,36.1021,VALID,23.4134,VALID,354,VALID,0.916016,
2008-08-23, 10:03:04,VALID,1006.37,VALID,0,VALID,95.8798,VALID,37.4094,VALID,23.3727,VALID,358,VALID,1.47344,
2008-08-23, 10:04:04,VALID,1006.43,VALID,0,VALID,95.895,VALID,37.7111,VALID,23.3727,VALID,3,VALID,0.772266,
2008-08-23, 10:05:04,VALID,1006.42,VALID,0.5,VALID,95.8874,VALID,37.2083,VALID,23.3921,VALID,360,VALID,1.31523,
2008-08-23, 10:06:04,VALID,1006.46,VALID,0,VALID,95.9027,VALID,37.6105,VALID,23.3921,VALID,32,VALID,0.807813,
2008-08-23, 10:07:04,VALID,1006.48,VALID,0,VALID,95.895,VALID,38.1134,VALID,23.3921,VALID,343,VALID,0.686328,
2008-08-23, 10:08:04,VALID,1006.45,VALID,0,VALID,95.9484,VALID,38.9179,VALID,23.3921,VALID,357,VALID,0.976953,
2008-08-23, 10:09:04,VALID,1006.5,VALID,0,VALID,95.9255,VALID,40.4263,VALID,23.3727,VALID,20,VALID,1.01914,
2008-08-23, 10:10:04,VALID,1006.5,VALID,0,VALID,95.9408,VALID,41.1302,VALID,23.3921,VALID,25,VALID,0.917969,
2008-08-23, 10:11:04,VALID,1006.49,VALID,0,VALID,95.9408,VALID,41.7336,VALID,23.3921,VALID,341,VALID,0.307031,
2008-08-23, 10:12:04,VALID,1006.52,VALID,0,VALID,95.9637,VALID,42.7393,VALID,23.3921,VALID,341,VALID,0.370313,
2008-08-23, 10:13:04,VALID,1006.53,VALID,0,VALID,95.9713,VALID,42.9404,VALID,23.4328,VALID,347,VALID,0.210156,
2008-08-23, 10:14:04,VALID,1006.54,VALID,0,VALID,96.0018,VALID,43.2421,VALID,23.4328,VALID,4,VALID,0.597266,
2008-08-23, 10:15:04,VALID,1006.55,VALID,0,VALID,96.0018,VALID,43.3426,VALID,23.4116,VALID,315,VALID,0.223828,
2008-08-23, 10:16:04,VALID,1006.53,VALID,0.5,VALID,96.0323,VALID,43.3426,VALID,23.4328,VALID,315,VALID,0.0976563,
2008-08-23, 10:17:04,VALID,1006.53,VALID,0,VALID,96.0552,VALID,43.1415,VALID,23.4116,VALID,319,VALID,0.0839844,
2008-08-23, 10:18:04,VALID,1006.51,VALID,0,VALID,96.0629,VALID,43.1415,VALID,23.4311,VALID,10,VALID,0.533594,
2008-08-23, 10:19:04,VALID,1006.51,VALID,0,VALID,96.04,VALID,43.1415,VALID,23.3939,VALID,33,VALID,1.76211,
2008-08-23, 10:20:04,VALID,1006.52,VALID,0,VALID,96.0552,VALID,43.7449,VALID,23.4505,VALID,355,VALID,0.285937,
2008-08-23, 10:21:04,VALID,1006.48,VALID,0,VALID,96.0018,VALID,44.4488,VALID,23.4116,VALID,6,VALID,1.55469,
2008-08-23, 10:22:04,VALID,1006.49,VALID,0,VALID,96.0171,VALID,44.4488,VALID,23.4311,VALID,1,VALID,0.948438,
2008-08-23, 10:23:04,VALID,1006.46,VALID,0,VALID,95.9942,VALID,44.9516,VALID,23.4116,VALID,5,VALID,0.641016,
2008-08-23, 10:24:04,VALID,1006.45,VALID,0.5,VALID,95.9789,VALID,46.7618,VALID,23.4311,VALID,336,VALID,0.872266,
2008-08-23, 10:25:04,VALID,1006.46,VALID,0,VALID,96.0323,VALID,47.6668,VALID,23.4718,VALID,3,VALID,0.340625,
2008-08-23, 10:26:04,VALID,1006.46,VALID,0,VALID,96.0323,VALID,49.8792,VALID,23.47,VALID,21,VALID,0.962891,
2008-08-23, 10:27:04,VALID,1006.48,VALID,0,VALID,96.0781,VALID,52.4939,VALID,23.4487,VALID,18,VALID,0.851563,
2008-08-23, 10:28:04,VALID,1006.48,VALID,0.5,VALID,96.0629,VALID,55.6113,VALID,23.5089,VALID,5,VALID,0.911328,
2008-08-23, 10:29:04,VALID,1006.46,VALID,0,VALID,96.101,VALID,58.8293,VALID,23.4894,VALID,32,VALID,1.67109,
2008-08-23, 10:30:04,VALID,1006.45,VALID,0,VALID,96.0934,VALID,61.9468,VALID,23.4894,VALID,25,VALID,0.432422,
2008-08-23, 10:31:04,VALID,1006.49,VALID,0,VALID,96.101,VALID,64.8631,VALID,23.5284,VALID,17,VALID,0.6875,
2008-08-23, 10:32:04,VALID,1006.48,VALID,0.5,VALID,96.1392,VALID,67.3772,VALID,23.5691,VALID,20,VALID,0.949219,
2008-08-23, 10:33:04,VALID,1006.52,VALID,0,VALID,96.1392,VALID,70.3941,VALID,23.5478,VALID,359,VALID,0.864844,
2008-08-23, 10:34:04,VALID,1006.48,VALID,0,VALID,96.0857,VALID,72.8076,VALID,23.4894,VALID,324,VALID,0.880469,
2008-08-23, 10:35:04,VALID,1006.51,VALID,0,VALID,96.0705,VALID,77.1318,VALID,23.5089,VALID,3,VALID,1.22539,
2008-08-23, 10:36:04,VALID,1006.5,VALID,0,VALID,96.0857,VALID,82.5622,VALID,23.5284,VALID,9,VALID,1.00781,
2008-08-23, 10:37:04,VALID,1006.48,VALID,0,VALID,96.0705,VALID,88.6965,VALID,23.5284,VALID,356,VALID,1.02852,
2008-08-23, 10:38:04,VALID,1006.48,VALID,0,VALID,96.0934,VALID,97.6466,VALID,23.546,VALID,357,VALID,0.567578,
2008-08-23, 10:39:04,VALID,1006.44,VALID,0.5,VALID,96.101,VALID,106.798,VALID,23.5885,VALID,351,VALID,0.857813,
2008-08-23, 10:40:04,VALID,1006.42,VALID,0,VALID,96.101,VALID,112.832,VALID,23.6062,VALID,18,VALID,0.841406,
2008-08-23, 10:41:04,VALID,1006.42,VALID,0,VALID,96.0323,VALID,116.854,VALID,23.5284,VALID,13,VALID,2.1375,
2008-08-23, 10:42:04,VALID,1006.42,VALID,0,VALID,95.9484,VALID,121.48,VALID,23.5284,VALID,11,VALID,1.69062,
2008-08-23, 10:43:04,VALID,1006.42,VALID,0,VALID,95.9637,VALID,127.715,VALID,23.5885,VALID,26,VALID,0.980469,
2008-08-23, 10:44:04,VALID,1006.4,VALID,0,VALID,96.0018,VALID,132.944,VALID,23.6062,VALID,22,VALID,1.13242,
2008-08-23, 10:45:04,VALID,1006.37,VALID,0,VALID,96.04,VALID,138.777,VALID,23.6257,VALID,12,VALID,1.01836,
2008-08-23, 10:46:04,VALID,1006.32,VALID,0.5,VALID,96.0629,VALID,142.498,VALID,23.6628,VALID,11,VALID,0.586719,
2008-08-23, 10:47:04,VALID,1006.3,VALID,0,VALID,96.0857,VALID,144.811,VALID,23.7248,VALID,20,VALID,1.47266,
2008-08-23, 10:48:04,VALID,1006.3,VALID,0,VALID,96.0629,VALID,144.811,VALID,23.7248,VALID,27,VALID,1.31641,
2008-08-23, 10:49:04,VALID,1006.28,VALID,0,VALID,96.0552,VALID,143.302,VALID,23.6823,VALID,35,VALID,1.01523,
2008-08-23, 10:50:04,VALID,1006.3,VALID,0,VALID,96.0705,VALID,139.783,VALID,23.7619,VALID,23,VALID,0.644531,
2008-08-23, 10:51:04,VALID,1006.25,VALID,0,VALID,96.0476,VALID,134.352,VALID,23.7425,VALID,345,VALID,1.11523,
2008-08-23, 10:52:04,VALID,1006.26,VALID,0,VALID,96.0171,VALID,128.318,VALID,23.7425,VALID,8,VALID,0.882813,
2008-08-23, 10:53:04,VALID,1006.24,VALID,0,VALID,95.9561,VALID,122.486,VALID,23.7425,VALID,20,VALID,1.01133,
2008-08-23, 10:54:04,VALID,1006.23,VALID,0,VALID,95.9789,VALID,119.167,VALID,23.7619,VALID,10,VALID,0.951563,
2008-08-23, 10:55:04,VALID,1006.21,VALID,0,VALID,95.9866,VALID,118.061,VALID,23.7832,VALID,21,VALID,0.489453,
2008-08-23, 10:56:04,VALID,1006.23,VALID,0,VALID,95.9027,VALID,120.072,VALID,23.7248,VALID,31,VALID,0.848828,
2008-08-23, 10:57:04,VALID,1006.22,VALID,0,VALID,95.8035,VALID,119.268,VALID,23.7035,VALID,354,VALID,1.3625,
2008-08-23, 10:58:04,VALID,1006.18,VALID,0,VALID,95.5365,VALID,118.865,VALID,23.6646,VALID,41,VALID,1.23359,
2008-08-23, 10:59:04,VALID,1006.15,VALID,0,VALID,95.5746,VALID,116.552,VALID,23.6841,VALID,23,VALID,1.19453,
2008-08-23, 11:00:04,VALID,1006.15,VALID,0,VALID,95.7043,VALID,114.441,VALID,23.723,VALID,1,VALID,0.848828,
2008-08-23, 11:01:04,VALID,1006.15,VALID,0,VALID,95.7119,VALID,109.01,VALID,23.7443,VALID,348,VALID,1.09375,
2008-08-23, 11:02:04,VALID,1006.15,VALID,0,VALID,95.7577,VALID,101.468,VALID,23.7637,VALID,9,VALID,0.552734,
2008-08-23, 11:03:04,VALID,1006.18,VALID,0,VALID,95.7882,VALID,95.3337,VALID,23.7619,VALID,9,VALID,0.254297,
2008-08-23, 11:04:04,VALID,1006.21,VALID,0,VALID,95.7882,VALID,92.9202,VALID,23.7637,VALID,78,VALID,1.14141,
2008-08-23, 11:05:04,VALID,1006.19,VALID,0,VALID,95.628,VALID,91.814,VALID,23.723,VALID,65,VALID,0.461719,
2008-08-23, 11:06:04,VALID,1006.23,VALID,0,VALID,95.567,VALID,90.1044,VALID,23.7035,VALID,90,VALID,0.841797,
2008-08-23, 11:07:04,VALID,1006.22,VALID,0,VALID,95.3229,VALID,86.7858,VALID,23.6452,VALID,96,VALID,1.26211,
2008-08-23, 11:08:04,VALID,1006.25,VALID,0.5,VALID,95.2618,VALID,82.1599,VALID,23.6452,VALID,98,VALID,1.03242,
2008-08-23, 11:09:04,VALID,1006.29,VALID,0,VALID,95.1932,VALID,79.0425,VALID,23.6257,VALID,86,VALID,1.3457,
2008-08-23, 11:10:04,VALID,1006.3,VALID,0,VALID,95.2084,VALID,75.8245,VALID,23.6275,VALID,78,VALID,1.19727,
2008-08-23, 11:11:04,VALID,1006.33,VALID,0,VALID,95.3152,VALID,75.3216,VALID,23.6062,VALID,31,VALID,1.01289,
2008-08-23, 11:12:04,VALID,1006.35,VALID,0,VALID,95.2847,VALID,77.8357,VALID,23.5885,VALID,108,VALID,1.77188,
2008-08-23, 11:13:04,VALID,1006.34,VALID,0,VALID,95.361,VALID,82.1599,VALID,23.5673,VALID,89,VALID,0.858594,
2008-08-23, 11:14:04,VALID,1006.35,VALID,0.5,VALID,95.3381,VALID,83.3667,VALID,23.5691,VALID,83,VALID,1.48555,
2008-08-23, 11:15:04,VALID,1006.35,VALID,0,VALID,95.506,VALID,89.4005,VALID,23.5266,VALID,101,VALID,0.565625,
2008-08-23, 11:16:04,VALID,1006.33,VALID,0.5,VALID,95.506,VALID,101.971,VALID,23.5478,VALID,76,VALID,1.8375,
2008-08-23, 11:17:04,VALID,1006.3,VALID,0,VALID,95.5975,VALID,115.547,VALID,23.5478,VALID,94,VALID,1.41133,
2008-08-23, 11:18:04,VALID,1006.31,VALID,0,VALID,95.6662,VALID,124.698,VALID,23.5478,VALID,100,VALID,1.21797,
2008-08-23, 11:19:04,VALID,1006.29,VALID,0,VALID,95.6204,VALID,129.223,VALID,23.5496,VALID,69,VALID,0.995703,
2008-08-23, 11:20:04,VALID,1006.25,VALID,0.5,VALID,95.8111,VALID,127.715,VALID,23.5673,VALID,31,VALID,0.865625,
2008-08-23, 11:21:04,VALID,1006.21,VALID,0,VALID,95.8569,VALID,131.939,VALID,23.6062,VALID,360,VALID,0.773828,
2008-08-23, 11:22:04,VALID,1006.15,VALID,0,VALID,95.8645,VALID,140.185,VALID,23.6275,VALID,18,VALID,0.569141,
2008-08-23, 11:23:04,VALID,1006.1,VALID,0,VALID,95.8721,VALID,151.548,VALID,23.6452,VALID,14,VALID,0.871484,
2008-08-23, 11:24:04,VALID,1006.07,VALID,0.5,VALID,95.8721,VALID,164.622,VALID,23.6452,VALID,352,VALID,1.28789,
2008-08-23, 11:25:04,VALID,1005.99,VALID,0,VALID,95.628,VALID,175.683,VALID,23.5885,VALID,88,VALID,0.875,
2008-08-23, 11:26:04,VALID,1006,VALID,0,VALID,95.7882,VALID,183.125,VALID,23.6664,VALID,19,VALID,1.06133,
2008-08-23, 11:27:04,VALID,1005.98,VALID,0,VALID,95.5822,VALID,186.745,VALID,23.5655,VALID,35,VALID,0.905469,
2008-08-23, 11:28:04,VALID,1005.96,VALID,0,VALID,95.5517,VALID,186.745,VALID,23.5868,VALID,42,VALID,0.964844,
2008-08-23, 11:29:04,VALID,1005.95,VALID,0,VALID,95.4449,VALID,182.119,VALID,23.5673,VALID,92,VALID,1.73086,
2008-08-23, 11:30:04,VALID,1005.88,VALID,0,VALID,95.5288,VALID,173.169,VALID,23.6452,VALID,43,VALID,0.866016,
2008-08-23, 11:31:04,VALID,1005.85,VALID,0,VALID,95.3991,VALID,162.51,VALID,23.6452,VALID,16,VALID,1.1293,
2008-08-23, 11:32:04,VALID,1005.8,VALID,0,VALID,95.3457,VALID,153.861,VALID,23.6452,VALID,52,VALID,0.705469,
2008-08-23, 11:33:04,VALID,1005.79,VALID,0,VALID,95.3457,VALID,148.833,VALID,23.6646,VALID,27,VALID,0.410937,
2008-08-23, 11:34:04,VALID,1005.79,VALID,0,VALID,95.506,VALID,143.906,VALID,23.7053,VALID,27,VALID,0.312109,
2008-08-23, 11:35:04,VALID,1005.8,VALID,0,VALID,95.5594,VALID,141.794,VALID,23.7035,VALID,18,VALID,0.593359,
2008-08-23, 11:36:04,VALID,1005.79,VALID,0,VALID,95.2771,VALID,141.593,VALID,23.6646,VALID,35,VALID,1.25547,
2008-08-23, 11:37:04,VALID,1005.81,VALID,0,VALID,95.2313,VALID,142.9,VALID,23.6841,VALID,344,VALID,1.17813,
2008-08-23, 11:38:04,VALID,1005.78,VALID,0,VALID,95.506,VALID,144.811,VALID,23.7832,VALID,348,VALID,0.780859,
2008-08-23, 11:39:04,VALID,1005.74,VALID,0,VALID,95.5975,VALID,149.537,VALID,23.7991,VALID,10,VALID,0.627344,
2008-08-23, 11:40:04,VALID,1005.75,VALID,0,VALID,95.5441,VALID,154.565,VALID,23.8398,VALID,15,VALID,0.852734,
2008-08-23, 11:41:04,VALID,1005.77,VALID,0,VALID,95.5517,VALID,161.404,VALID,23.8398,VALID,348,VALID,0.659766,
2008-08-23, 11:42:04,VALID,1005.73,VALID,0,VALID,95.567,VALID,167.437,VALID,23.8398,VALID,350,VALID,0.458594,
2008-08-23, 11:43:04,VALID,1005.76,VALID,0,VALID,95.6662,VALID,172.968,VALID,23.9177,VALID,355,VALID,1.07148,
2008-08-23, 11:44:04,VALID,1005.74,VALID,0,VALID,95.4907,VALID,179.807,VALID,23.9,VALID,6,VALID,0.808984,
2008-08-23, 11:45:04,VALID,1005.75,VALID,0.5,VALID,95.4907,VALID,184.634,VALID,23.8787,VALID,352,VALID,0.597266,
2008-08-23, 11:46:04,VALID,1005.73,VALID,0,VALID,95.6128,VALID,193.785,VALID,23.9177,VALID,342,VALID,0.347266,
2008-08-23, 11:47:04,VALID,1005.72,VALID,0,VALID,95.3534,VALID,201.126,VALID,23.8787,VALID,23,VALID,0.912891,
2008-08-23, 11:48:04,VALID,1005.69,VALID,0,VALID,95.2618,VALID,211.987,VALID,23.8805,VALID,347,VALID,1.13633,
2008-08-23, 11:49:04,VALID,1005.65,VALID,0,VALID,95.5441,VALID,221.942,VALID,23.9389,VALID,333,VALID,1.22422,
2008-08-23, 11:50:04,VALID,1005.61,VALID,0.5,VALID,95.6051,VALID,233.105,VALID,23.9584,VALID,271,VALID,1.1418,
2008-08-23, 11:51:04,VALID,1005.58,VALID,0,VALID,95.4602,VALID,241.653,VALID,23.9584,VALID,358,VALID,1.31602,
2008-08-23, 11:52:04,VALID,1005.57,VALID,0,VALID,95.6585,VALID,254.424,VALID,24.0168,VALID,339,VALID,0.449219,
2008-08-23, 11:53:04,VALID,1005.54,VALID,0,VALID,95.5517,VALID,265.788,VALID,23.9955,VALID,360,VALID,0.949609,
2008-08-23, 11:54:04,VALID,1005.53,VALID,0,VALID,95.4449,VALID,275.844,VALID,24.0168,VALID,315,VALID,1.03437,
2008-08-23, 11:55:04,VALID,1005.51,VALID,0,VALID,95.6967,VALID,288.515,VALID,24.0947,VALID,275,VALID,0.494531,
2008-08-23, 11:56:04,VALID,1005.49,VALID,0,VALID,95.7348,VALID,300.583,VALID,24.1105,VALID,332,VALID,0.5,
2008-08-23, 11:57:04,VALID,1005.49,VALID,0,VALID,95.5288,VALID,304.706,VALID,24.1336,VALID,355,VALID,1.20586,
2008-08-23, 11:58:04,VALID,1005.45,VALID,0.5,VALID,95.4983,VALID,302.493,VALID,24.1531,VALID,320,VALID,0.580078,
2008-08-23, 11:59:04,VALID,1005.46,VALID,0,VALID,95.6585,VALID,292.135,VALID,24.231,VALID,339,VALID,0.488672,
2008-08-23, 12:00:04,VALID,1005.47,VALID,0,VALID,95.4526,VALID,281.476,VALID,24.2115,VALID,354,VALID,0.880859,
2008-08-23, 12:01:04,VALID,1005.47,VALID,0,VALID,95.4449,VALID,271.621,VALID,24.1902,VALID,341,VALID,0.916406,
2008-08-23, 12:02:04,VALID,1005.47,VALID,0,VALID,95.0635,VALID,264.782,VALID,24.1318,VALID,358,VALID,1.70352,
2008-08-23, 12:03:04,VALID,1005.44,VALID,0,VALID,95.0558,VALID,262.067,VALID,24.1336,VALID,345,VALID,1.02266,
2008-08-23, 12:04:04,VALID,1005.43,VALID,0,VALID,94.9796,VALID,261.564,VALID,24.1142,VALID,15,VALID,1.07422,
2008-08-23, 12:05:04,VALID,1005.36,VALID,0,VALID,95.1627,VALID,262.57,VALID,24.1531,VALID,313,VALID,0.837109,
2008-08-23, 12:06:04,VALID,1005.35,VALID,0,VALID,94.8956,VALID,263.475,VALID,24.1142,VALID,360,VALID,1.12227,
2008-08-23, 12:07:04,VALID,1005.36,VALID,0,VALID,95.2923,VALID,264.883,VALID,24.1707,VALID,302,VALID,0.391797,
2008-08-23, 12:08:04,VALID,1005.34,VALID,0,VALID,94.9414,VALID,267.095,VALID,24.2115,VALID,358,VALID,2.11523,
2008-08-23, 12:09:04,VALID,1005.3,VALID,0,VALID,94.5066,VALID,270.112,VALID,24.1123,VALID,346,VALID,1.67969,
2008-08-23, 12:10:04,VALID,1005.32,VALID,0,VALID,94.6363,VALID,272.928,VALID,24.1531,VALID,344,VALID,0.667578,
2008-08-23, 12:11:04,VALID,1005.27,VALID,0,VALID,94.5218,VALID,276.246,VALID,24.0929,VALID,331,VALID,0.692969,
2008-08-23, 12:12:04,VALID,1005.22,VALID,0,VALID,94.9338,VALID,279.364,VALID,24.1726,VALID,351,VALID,1.31172,
2008-08-23, 12:13:04,VALID,1005.18,VALID,0,VALID,94.8346,VALID,283.789,VALID,24.192,VALID,355,VALID,1.33438,
2008-08-23, 12:14:04,VALID,1005.15,VALID,0,VALID,94.7583,VALID,288.917,VALID,24.2097,VALID,1,VALID,1.83984,
2008-08-23, 12:15:04,VALID,1005.08,VALID,0,VALID,94.9033,VALID,294.448,VALID,24.2699,VALID,332,VALID,1.04023,
2008-08-23, 12:16:04,VALID,1005.03,VALID,0,VALID,95.1703,VALID,297.867,VALID,24.3265,VALID,335,VALID,0.826563,
2008-08-23, 12:17:04,VALID,1005.02,VALID,0,VALID,94.6439,VALID,298.571,VALID,24.3478,VALID,359,VALID,1.74531,
2008-08-23, 12:18:04,VALID,1005.06,VALID,0,VALID,94.4761,VALID,295.253,VALID,24.3478,VALID,356,VALID,1.97109,
2008-08-23, 12:19:04,VALID,1005.12,VALID,0,VALID,94.6134,VALID,288.213,VALID,24.3867,VALID,347,VALID,2.31172,
2008-08-23, 12:20:04,VALID,1005.11,VALID,0,VALID,94.4913,VALID,279.967,VALID,24.3459,VALID,345,VALID,1.11445,
2008-08-23, 12:21:04,VALID,1005.1,VALID,0,VALID,93.7132,VALID,271.419,VALID,24.3088,VALID,337,VALID,2.29531,
2008-08-23, 12:22:04,VALID,1005.07,VALID,0,VALID,93.6216,VALID,260.961,VALID,24.2504,VALID,354,VALID,1.42695,
2008-08-23, 12:23:04,VALID,1005.03,VALID,0,VALID,93.6369,VALID,251.407,VALID,24.231,VALID,346,VALID,1.38555,
2008-08-23, 12:24:04,VALID,1005.03,VALID,0,VALID,93.7361,VALID,242.256,VALID,24.231,VALID,351,VALID,1.15937,
2008-08-23, 12:25:04,VALID,1005.03,VALID,0,VALID,94.2472,VALID,233.809,VALID,24.231,VALID,5,VALID,0.719922,
2008-08-23, 12:26:04,VALID,1005.03,VALID,0,VALID,94.56,VALID,228.378,VALID,24.2875,VALID,348,VALID,0.948047,
2008-08-23, 12:27:04,VALID,1005.01,VALID,0,VALID,94.2014,VALID,223.149,VALID,24.3088,VALID,338,VALID,1.675,
2008-08-23, 12:28:04,VALID,1004.98,VALID,0,VALID,93.8963,VALID,220.836,VALID,24.3088,VALID,353,VALID,1.72773,
2008-08-23, 12:29:04,VALID,1004.95,VALID,0,VALID,93.5911,VALID,217.216,VALID,24.2699,VALID,349,VALID,2.13711,
2008-08-23, 12:30:04,VALID,1004.99,VALID,0,VALID,94.0107,VALID,212.892,VALID,24.2894,VALID,348,VALID,1.26211,
2008-08-23, 12:31:04,VALID,1004.98,VALID,0,VALID,94.0794,VALID,208.467,VALID,24.2894,VALID,360,VALID,1.0918,
2008-08-23, 12:32:04,VALID,1004.95,VALID,0,VALID,93.9191,VALID,205.852,VALID,24.2894,VALID,344,VALID,0.712891,
2008-08-23, 12:33:04,VALID,1004.92,VALID,0,VALID,93.3241,VALID,205.048,VALID,24.2523,VALID,354,VALID,1.96484,
2008-08-23, 12:34:04,VALID,1004.95,VALID,0,VALID,93.8657,VALID,207.16,VALID,24.2504,VALID,1,VALID,1.15273,
2008-08-23, 12:35:04,VALID,1004.92,VALID,0,VALID,94.1404,VALID,212.791,VALID,24.2699,VALID,326,VALID,1.12227,
2008-08-23, 12:36:04,VALID,1004.89,VALID,0,VALID,93.9039,VALID,221.238,VALID,24.2504,VALID,280,VALID,0.590625,
2008-08-23, 12:37:04,VALID,1004.86,VALID,0,VALID,93.3165,VALID,231.596,VALID,24.231,VALID,351,VALID,1.99844,
2008-08-23, 12:38:04,VALID,1004.83,VALID,0,VALID,92.8816,VALID,243.061,VALID,24.192,VALID,333,VALID,1.39844,
2008-08-23, 12:39:04,VALID,1004.84,VALID,0,VALID,93.3317,VALID,253.821,VALID,24.2291,VALID,350,VALID,1.64297,
2008-08-23, 12:40:04,VALID,1004.85,VALID,0,VALID,93.1029,VALID,264.078,VALID,24.2291,VALID,354,VALID,1.45039,
2008-08-23, 12:41:04,VALID,1004.78,VALID,0,VALID,93.7742,VALID,273.23,VALID,24.2875,VALID,6,VALID,1.25312,
2008-08-23, 12:42:04,VALID,1004.75,VALID,0,VALID,93.7971,VALID,281.174,VALID,24.3265,VALID,7,VALID,0.703516,
2008-08-23, 12:43:04,VALID,1004.75,VALID,0,VALID,93.6445,VALID,288.012,VALID,24.3654,VALID,354,VALID,1.45313,